Regional Weather Roundup
Issued by NWS

Home | Current Version | Previous Version | Graphics & Text | Print | Product List | Glossary On
Versions: 1 2 3 4 5 6 7 8 9 10 11 12 13 14 15 16 17 18 19 20 21 22 23 24 25 26 27 28 29 30 31 32 33 34 35 36 37 38 39 40 41 42 43 44 45 46 47 48 49 50
000
ASUS43 KIND 271609
RWRIN

WEATHER ROUNDUP FOR INDIANA
NATIONAL WEATHER SERVICE INDIANAPOLIS IN
1100 AM EST MON FEB 27 2017

NOTE: "FAIR" INDICATES FEW OR NO CLOUDS BELOW 12,000 FEET WITH NO
SIGNIFICANT WEATHER AND/OR OBSTRUCTIONS TO VISIBILITY.

* - STATION DOES NOT REPORT WEATHER SUCH AS PRECIPITATION OR FOG.

+ - STATION NOT QUALITY CONTROLLED BY THE NATIONAL WEATHER SERVICE.
    USE DATA WITH CAUTION...ESPECIALLY DEWPOINT AND RELATIVE
    HUMIDITY OBSERVATIONS.

INZ001>003-010>013-019-020-271700-
NORTHWEST INDIANA

CITY           SKY/WX    TMP DP  RH WIND       PRES   REMARKS
GARY /AIRPORT/ MOSUNNY   43  32  65 SW5       30.20R
KNOX *+        SUNNY     43  16  33 S10       30.20S
LA PORTE +     SUNNY     41  33  73 S9        30.21R
MICHIGAN CITY+ SUNNY     43  32  65 SE7       30.21R
MONTICELLO +   CLOUDY    42  36  80 SE5       30.19F
RENSSELAER +     N/A     45  36  70 S10       30.19F
VALPARAISO     SUNNY     44  35  70 S10       30.20R

$$

LMZ046-743>745-271700-
SOUTHERN LAKE MICHIGAN

STATION/POSITION TIME  TEMP    WIND        PRES    WAVE
                       AIR SEA DIR/SP/G            HT
                 (UTC) (F)     (DEG/KT/KT) (MB)    (FT)
BURNS HARBOR     1540   40     200/  7/ 10 1023.0R
MICHIGAN CITY    1540   40     190/  4/  4   N/A

$$

INZ004-005-014>016-021>024-271700-
NORTH CENTRAL INDIANA

CITY           SKY/WX    TMP DP  RH WIND       PRES   REMARKS
ELKHART        SUNNY     41  30  65 S7        30.21
GOSHEN         SUNNY     43  30  60 S9        30.21R
LOGANSPORT +   CLOUDY    43  37  81 S5        30.21S
PERU/GRISSOM   CLOUDY    44  37  76 SE5       30.19F
ROCHESTER +    CLOUDY    43  34  70 S8        30.22S
SOUTH BEND     SUNNY     42  32  67 SW9       30.21R
WARSAW +       PTSUNNY   43  30  61 S7        30.21S

$$

INZ006>009-017-018-025>027-271700-
NORTHEAST INDIANA

CITY           SKY/WX    TMP DP  RH WIND       PRES   REMARKS
ANGOLA *+      SUNNY     43  32  65 S6        30.21R
AUBURN +       MOSUNNY   45  32  61 S8        30.23S
FORT WAYNE     CLOUDY    43  34  70 S7        30.23S
HUNTINGTON +   CLOUDY    42  35  77 S6        30.22F
KENDALLVILLE + SUNNY     44  31  61 S10       30.22S

$$

INZ028-029-035-036-043>045-051>053-271700-
WEST CENTRAL INDIANA

CITY           SKY/WX    TMP DP  RH WIND       PRES   REMARKS
LAFAYETTE      CLOUDY    46  37  71 SE7       30.19F
TERRE HAUTE    MOSUNNY   50  38  63 S10       30.19S

$$

INZ030>032-037>040-046>048-054>057-064-065-271700-
CENTRAL INDIANA

CITY           SKY/WX    TMP DP  RH WIND       PRES   REMARKS
ANDERSON       CLOUDY    46  30  53 S8        30.22F
CP ATTERBURY + CLOUDY    46  36  66 SE5       30.22F
COLUMBUS       CLOUDY    46  37  71 S7        30.23S
FISHERS *+     PTSUNNY   46  37  71 SW10      30.21F
FRANKFORT +    MOSUNNY   51  36  58 S8        30.21S
GREENWOOD *+   CLOUDY    46  34  63 S8        30.21F
INDIANAPOLIS   MOSUNNY   47  34  60 S10       30.20F
-EAGLE CREEK   SUNNY     48  36  63 S10       30.20F
KOKOMO +       CLOUDY    43  37  79 SE9       30.21F
MARION +       CLOUDY    43  34  70 SE5       30.22F
MT COMFORT *+  CLOUDY    46  34  61 S12       30.21F
SHELBYVILLE    CLOUDY    47  35  63 S8        30.22S
ZIONSVILLE +   SUNNY     47  34  62 S7        30.21S

$$

INZ033-034-041-042-049-050-058-059-271700-
EAST CENTRAL INDIANA

CITY           SKY/WX    TMP DP  RH WIND       PRES   REMARKS
MUNCIE         CLOUDY    47  28  47 S8        30.22S

$$

INZ060-061-067>069-081>083-085>088-271700-
SOUTHWEST INDIANA

CITY           SKY/WX    TMP DP  RH WIND       PRES   REMARKS
EVANSVILLE     LGT RAIN  48  42  80 SE7       30.21R
HUNTINGBURG *+ CLOUDY    46  42  86 SE5       30.22R
WASHINGTON +   CLOUDY    46  39  79 SE8       30.20S

$$

INZ062-063-066-070>080-084-089>092-271700-
SOUTH CENTRAL AND SOUTHEAST INDIANA

CITY           SKY/WX    TMP DP  RH WIND       PRES   REMARKS
BEDFORD +      CLOUDY    45  37  76 E5        30.21R
BLOOMINGTON    CLOUDY    47  37  68 SE10      30.20F
MADISON *+     CLOUDY    43  41  93 SE7       30.25S
NORTH VERNON + CLOUDY    45  37  76 SE5       30.23S
SEYMOUR +      CLOUDY    46  39  76 SE7       30.23R

$$





USA.gov is the U.S. government's official web portal to all federal, state and local government web resources and services.